H1 CPF 1 NER 2021 8 11 9 7231 glonass106 H2 0705201 9106 32275 2021 8 11 0 0 0 2021 8 14 23 45 0 900 1 1 0 0 0 H9 10 0 59437 0.00000 0 2514612.200 17761813.751 18133968.124 10 0 59437 900.00000 0 1213953.877 15790789.096 19993966.222 10 0 59437 1800.00000 0 -367448.670 13769982.288 21465578.240 10 0 59437 2700.00000 0 -2207842.326 11765451.854 22520177.470 10 0 59437 3600.00000 0 -4273117.431 9839345.016 23137232.092 10 0 59437 4500.00000 0 -6518000.438 8047410.555 23304706.466 10 0 59437 5400.00000 0 -8887724.188 6436796.271 23019298.065 10 0 59437 6300.00000 0 -11320107.579 5044222.704 22286505.282 10 0 59437 7200.00000 0 -13747958.897 3894609.026 21120524.573 10 0 59437 8100.00000 0 -16101703.508 3000208.020 19543978.539 10 0 59437 9000.00000 0 -18312126.949 2360285.737 17587479.735 10 0 59437 9900.00000 0 -20313119.255 1961358.681 15289038.230 10 0 59437 10800.00000 0 -22044306.079 1777977.807 12693323.947 10 0 59437 11700.00000 0 -23453456.540 1774025.557 9850797.808 10 0 59437 12600.00000 0 -24498566.817 1904470.452 6816728.507 10 0 59437 13500.00000 0 -25149532.014 2117504.249 3650114.150 10 0 59437 14400.00000 0 -25389336.015 2356970.340 412530.079 10 0 59437 15300.00000 0 -25214709.363 2564979.658 -2833074.061 10 0 59437 16200.00000 0 -24636227.712 2684602.335 -6023603.887 10 0 59437 17100.00000 0 -23677847.090 2662520.132 -9097051.855 10 0 59437 18000.00000 0 -22375896.064 2451526.483 -11993706.073 10 0 59437 18900.00000 0 -20777567.830 2012767.565 -14657312.358 10 0 59437 19800.00000 0 -18938976.227 1317628.982 -17036166.673 10 0 59437 20700.00000 0 -16922857.875 349187.877 -19084116.640 10 0 59437 21600.00000 0 -14796017.190 -896831.229 -20761453.017 10 0 59437 22500.00000 0 -12626621.368 -2411637.593 -22035674.425 10 0 59437 23400.00000 0 -10481458.365 -4173510.441 -22882111.141 10 0 59437 24300.00000 0 -8423271.899 -6148485.109 -23284396.769 10 0 59437 25200.00000 0 -6508283.890 -8291561.111 -23234779.420 10 0 59437 26100.00000 0 -4784006.671 -10548382.457 -22734267.052 10 0 59437 27000.00000 0 -3287434.951 -12857321.021 -21792604.627 10 0 59437 27900.00000 0 -2043691.560 -15151877.090 -20428083.764 10 0 59437 28800.00000 0 -1065182.213 -17363297.989 -18667188.521 10 0 59437 29700.00000 0 -351293.267 -19423306.595 -16544083.895 10 0 59437 30600.00000 0 111356.063 -21266826.839 -14099956.476 10 0 59437 31500.00000 0 348118.553 -22834593.124 -11382219.493 10 0 59437 32400.00000 0 395015.124 -24075535.200 -8443597.098 10 0 59437 33300.00000 0 296977.794 -24948839.126 -5341105.079 10 0 59437 34200.00000 0 105713.891 -25425598.178 -2134947.487 10 0 59437 35100.00000 0 -122717.889 -25489984.508 1112649.661 10 0 59437 36000.00000 0 -330516.912 -25139892.301 4338645.056 10 0 59437 36900.00000 0 -460824.800 -24387025.203 7480405.499 10 0 59437 37800.00000 0 -460370.517 -23256424.086 10476922.154 10 0 59437 38700.00000 0 -281963.945 -21785454.663 13269995.811 10 0 59437 39600.00000 0 113268.062 -20022297.155 15805367.847 10 0 59437 40500.00000 0 753998.353 -18024001.035 18033774.835 10 0 59437 41400.00000 0 1657249.321 -15854186.031 19911906.294 10 0 59437 42300.00000 0 2827438.036 -13580485.371 21403246.971 10 0 59437 43200.00000 0 4255958.119 -11271837.799 22478787.483 10 0 59437 44100.00000 0 5921317.275 -8995741.143 23117589.643 10 0 59437 45000.00000 0 7789826.067 -6815581.699 23307195.614 10 0 59437 45900.00000 0 9816810.552 -4788150.411 23043872.981 10 0 59437 46800.00000 0 11948299.386 -2961448.922 22332690.877 10 0 59437 47700.00000 0 14123116.022 -1372876.543 21187425.457 10 0 59437 48600.00000 0 16275289.593 -47873.205 19630296.165 10 0 59437 49500.00000 0 18336684.513 1000925.592 17691537.446 10 0 59437 50400.00000 0 20239739.241 1773987.140 15408813.724 10 0 59437 51300.00000 0 21920199.891 2284621.560 12826488.584 10 0 59437 52200.00000 0 23319734.190 2558175.322 9994761.970 10 0 59437 53100.00000 0 24388315.938 2630713.128 6968692.160 10 0 59437 54000.00000 0 25086279.644 2547244.817 3807121.586 10 0 59437 54900.00000 0 25385958.700 2359573.221 571527.732 10 0 59437 55800.00000 0 25272837.962 2123855.110 -2675177.860 10 0 59437 56700.00000 0 24746172.160 1897979.516 -5869878.460 10 0 59437 57600.00000 0 23819044.147 1738875.540 -8950484.223 10 0 59437 58500.00000 0 22517860.791 1699864.518 -11857142.727 10 0 59437 59400.00000 0 20881308.044 1828169.495 -14533403.905 10 0 59437 60300.00000 0 18958809.494 2162687.979 -16927316.459 10 0 59437 61200.00000 0 16808553.529 2732122.588 -18992434.329 10 0 59437 62100.00000 0 14495172.070 3553548.870 -20688714.023 10 0 59437 63000.00000 0 12087168.080 4631480.977 -21983285.904 10 0 59437 63900.00000 0 9654199.282 5957474.762 -22851085.169 10 0 59437 64800.00000 0 7264330.949 7510285.401 -23275331.153 10 0 59437 65700.00000 0 4981371.537 9256573.402 -23247846.466 10 0 59437 66600.00000 0 2862401.209 11152130.044 -22769210.452 10 0 59437 67500.00000 0 955594.904 13143571.777 -21848744.529 10 0 59437 68400.00000 0 -701570.764 15170433.657 -20504329.920 10 0 59437 69300.00000 0 -2083653.454 17167575.265 -18762061.287 10 0 59437 70200.00000 0 -3178069.599 19067799.557 -16655742.704 10 0 59437 71100.00000 0 -3985374.383 20804576.123 -14226235.282 10 0 59437 72000.00000 0 -4518986.617 22314755.645 -11520668.530 10 0 59437 72900.00000 0 -4804371.128 23541162.592 -8591530.177 10 0 59437 73800.00000 0 -4877713.837 24434957.889 -5495651.526 10 0 59437 74700.00000 0 -4784145.945 24957672.603 -2293107.725 10 0 59437 75600.00000 0 -4575592.655 25082827.303 953945.972 10 0 59437 76500.00000 0 -4308337.657 24797068.789 4182479.448 10 0 59437 77400.00000 0 -4040406.691 24100776.106 7329810.881 10 0 59437 78300.00000 0 -3828881.178 23008109.885 10334823.930 10 0 59437 79200.00000 0 -3727255.954 21546502.400 13139155.072 10 0 59437 80100.00000 0 -3782953.279 19755609.192 15688327.773 10 0 59437 81000.00000 0 -4035098.760 17685765.694 17932811.323 10 0 59437 81900.00000 0 -4512653.788 15396012.892 19828983.787 10 0 59437 82800.00000 0 -5232984.047 12951774.164 21339980.315 10 0 59437 83700.00000 0 -6200925.379 10422279.859 22436410.529 10 0 59437 84600.00000 0 -7408387.364 7877846.502 23096931.194 10 0 59437 85500.00000 0 -8834512.439 5387123.714 23308663.166 10 0 59438 0.00000 0 -10446385.090 3014422.917 23067444.568 10 0 59438 900.00000 0 -12200262.905 817238.677 22377915.135 10 0 59438 1800.00000 0 -14043278.276 -1155935.055 21253430.076 10 0 59438 2700.00000 0 -15915541.626 -2867402.346 19715804.418 10 0 59438 3600.00000 0 -17752557.968 -4291603.523 17794892.652 10 0 59438 4500.00000 0 -19487856.561 -5415937.812 15528011.169 10 0 59438 5400.00000 0 -21055723.596 -6241037.423 12959214.320 10 0 59438 6300.00000 0 -22393923.360 -6780482.339 10138437.795 10 0 59438 7200.00000 0 -23446293.354 -7059968.810 7120525.877 10 0 59438 8100.00000 0 -24165103.980 -7115967.647 3964161.563 10 0 59438 9000.00000 0 -24513083.077 -6993930.082 730720.673 10 0 59438 9900.00000 0 -24465019.633 -6746118.133 -2516927.132 10 0 59438 10800.00000 0 -24008878.787 -6429152.426 -5715646.417 10 0 59438 11700.00000 0 -23146380.905 -6101382.358 -8803268.504 10 0 59438 12600.00000 0 -21893020.274 -5820190.936 -11719803.658 10 0 59438 13500.00000 0 -20277522.668 -5639349.238 -14408608.852 10 0 59438 14400.00000 0 -18340764.754 -5606533.066 -16817488.080 10 0 59438 15300.00000 0 -16134200.855 -5761107.258 -18899703.726 10 0 59438 16200.00000 0 -13717863.194 -6132271.456 -20614879.638 10 0 59438 17100.00000 0 -11158019.215 -6737645.748 -21929778.938 10 0 59438 18000.00000 0 -8524583.746 -7582355.763 -22818942.143 10 0 59438 18900.00000 0 -5888393.443 -8658655.853 -23265174.084 10 0 59438 19800.00000 0 -3318456.326 -9946106.364 -23259871.033 10 0 59438 20700.00000 0 -879290.002 -11412297.878 -22803182.353 10 0 59438 21600.00000 0 1371541.955 -13014092.582 -21904004.096 10 0 59438 22500.00000 0 3385594.314 -14699331.448 -20579804.893 10 0 59438 23400.00000 0 5125316.500 -16408936.479 -18856287.517 10 0 59438 24300.00000 0 6565368.387 -18079320.906 -16766892.414 10 0 59438 25200.00000 0 7693422.106 -19645007.205 -14352152.351 10 0 59438 26100.00000 0 8510417.596 -21041343.993 -11658910.153 10 0 59438 27000.00000 0 9030262.391 -22207208.474 -8739414.121 10 0 59438 27900.00000 0 9278989.218 -23087581.470 -5650308.083 10 0 59438 28800.00000 0 9293407.584 -23635887.001 -2451535.363 10 0 59438 29700.00000 0 9119306.820 -23815998.072 794822.342 10 0 59438 30600.00000 0 8809286.877 -23603824.022 4025748.740 10 0 59438 31500.00000 0 8420308.888 -22988412.203 7178515.799 10 0 59438 32400.00000 0 8011069.376 -21972517.043 10191901.834 10 0 59438 33300.00000 0 7639309.471 -20572611.830 13007380.904 10 0 59438 34200.00000 0 7359173.237 -18818341.964 15570260.156 10 0 59438 35100.00000 0 7218727.135 -16751441.780 17830742.898 10 0 59438 36000.00000 0 7257745.868 -14424159.523 19744896.715 10 0 59438 36900.00000 0 7505858.537 -11897255.608 21275507.821 10 0 59438 37800.00000 0 7981133.941 -9237657.064 22392805.193 10 0 59438 38700.00000 0 8689165.318 -6515865.243 23075040.606 10 0 59438 39600.00000 0 9622693.891 -3803224.245 23308913.384 10 0 59438 40500.00000 0 10761787.960 -1169163.098 23089831.709 10 0 59438 41400.00000 0 12074571.054 1321474.173 22422005.318 10 0 59438 42300.00000 0 13518469.514 3610900.033 21318367.585 10 0 59438 43200.00000 0 15041928.082 5650554.233 19800328.147 10 0 59438 44100.00000 0 16586522.310 7402884.165 17897360.392 10 0 59438 45000.00000 0 18089379.642 8842661.077 15646431.380 10 0 59438 45900.00000 0 19485807.863 9957777.991 13091284.764 10 0 59438 46800.00000 0 20712020.526 10749496.767 10281590.311 10 0 59438 47700.00000 0 21707844.522 11232134.853 7271976.431 10 0 59438 48600.00000 0 22419295.473 11432205.971 4120964.605 10 0 59438 49500.00000 0 22800911.946 11387052.110 889826.710 10 0 59438 50400.00000 0 22817749.517 11143025.665 -2358611.906 10 0 59438 51300.00000 0 22446950.084 10753299.809 -5561199.624 10 0 59438 52200.00000 0 21678819.769 10275400.810 -8655691.445 10 0 59438 53100.00000 0 20517369.654 9768567.777 -11581962.771 10 0 59438 54000.00000 0 18980296.360 9291052.460 -14283179.913 10 0 59438 54900.00000 0 17098403.120 8897473.979 -16706904.288 10 0 59438 55800.00000 0 14914485.664 8636340.779 -18806108.644 10 0 59438 56700.00000 0 12481729.547 8547844.662 -20540085.930 10 0 59438 57600.00000 0 9861685.800 8662019.994 -21875233.624 10 0 59438 58500.00000 0 7121909.290 8997345.499 -22785698.995 10 0 59438 59400.00000 0 4333357.752 9559847.339 -23253873.651 10 0 59438 60300.00000 0 1567659.090 10342741.013 -23270728.594 10 0 59438 61200.00000 0 -1105640.214 11326627.071 -22835984.003 10 0 59438 62100.00000 0 -3621732.363 12480232.555 -21958111.014 10 0 59438 63000.00000 0 -5923002.049 13761667.379 -20654165.703 10 0 59438 63900.00000 0 -7961176.056 15120143.423 -18949458.535 10 0 59438 64800.00000 0 -9699080.698 16498084.881 -16877065.437 10 0 59438 65700.00000 0 -11111935.273 17833542.019 -14477189.471 10 0 59438 66600.00000 0 -12188128.768 19062807.687 -11796385.001 10 0 59438 67500.00000 0 -12929448.588 20123127.264 -8886658.738 10 0 59438 68400.00000 0 -13350752.739 20955388.582 -5804464.562 10 0 59438 69300.00000 0 -13479100.050 21506678.836 -2609611.242 10 0 59438 70200.00000 0 -13352375.757 21732600.867 635896.009 10 0 59438 71100.00000 0 -13017470.914 21599250.994 3869057.774 10 0 59438 72000.00000 0 -12528092.862 21084774.610 7027102.953 10 0 59438 72900.00000 0 -11942299.594 20180433.349 10048707.674 10 0 59438 73800.00000 0 -11319862.469 18891138.072 12875186.700 10 0 59438 74700.00000 0 -10719569.000 17235424.307 15451633.889 10 0 59438 75600.00000 0 -10196579.891 15244870.185 17727989.436 10 0 59438 76500.00000 0 -9799952.214 12962980.167 19660013.118 10 0 59438 77400.00000 0 -9570433.500 10443580.361 21210144.620 10 0 59438 78300.00000 0 -9538620.129 7748791.409 22348234.379 10 0 59438 79200.00000 0 -9723557.969 4946662.631 23052130.928 10 0 59438 80100.00000 0 -10131844.688 2108565.146 23308113.405 10 0 59438 81000.00000 0 -10757272.044 -693548.293 23111160.955 10 0 59438 81900.00000 0 -11581023.864 -3389903.582 22465053.676 10 0 59438 82800.00000 0 -12572422.046 -5915571.399 21382302.986 10 0 59438 83700.00000 0 -13690189.924 -8212928.975 19883912.406 10 0 59438 84600.00000 0 -14884180.530 -10233815.660 17998972.951 10 0 59438 85500.00000 0 -16097497.526 -11941292.940 15764100.506 10 0 59439 0.00000 0 -17268919.948 -13310936.185 13222725.740 10 0 59439 900.00000 0 -18335528.648 -14331604.687 10424249.585 10 0 59439 1800.00000 0 -19235424.036 -15005659.013 7423081.483 10 0 59439 2700.00000 0 -19910419.336 -15348616.449 4277577.963 10 0 59439 3600.00000 0 -20308596.293 -15388261.373 1048903.345 10 0 59439 4500.00000 0 -20386613.960 -15163248.143 -2200165.037 10 0 59439 5400.00000 0 -20111672.851 -14721257.127 -5406463.097 10 0 59439 6300.00000 0 -19463050.774 -14116782.808 -8507673.189 10 0 59439 7200.00000 0 -18433145.032 -13408648.586 -11443539.388 10 0 59439 8100.00000 0 -17027976.590 -12657354.275 -14157040.701 10 0 59439 9000.00000 0 -15267134.626 -11922369.205 -16595499.028 10 0 59439 9900.00000 0 -13183163.550 -11259485.728 -18711600.185 10 0 59439 10800.00000 0 -10820417.936 -10718345.107 -20464308.440 10 0 59439 11700.00000 0 -8233433.020 -10340240.034 -21819657.292 10 0 59439 12600.00000 0 -5484878.519 -10156286.099 -22751401.815 10 0 59439 13500.00000 0 -2643180.569 -10186038.734 -23241520.800 10 0 59439 14400.00000 0 220089.904 -10436613.325 -23280559.761 10 0 59439 15300.00000 0 3032954.606 -10902345.008 -22867808.901 10 0 59439 16200.00000 0 5725778.399 -11565002.143 -22011313.136 10 0 59439 17100.00000 0 8233919.927 -12394544.376 -20727714.258 10 0 59439 18000.00000 0 10500173.403 -13350393.560 -19041928.336 10 0 59439 18900.00000 0 12476901.403 -14383164.417 -16986664.360 10 0 59439 19800.00000 0 14127771.218 -15436782.714 -14601793.002 10 0 59439 20700.00000 0 15429023.525 -16450902.352 -11933577.215 10 0 59439 21600.00000 0 16370221.600 -17363520.234 -9033778.960 10 0 59439 22500.00000 0 16954450.672 -18113679.197 -5958658.833 10 0 59439 23400.00000 0 17197959.895 -18644145.408 -2767887.615 10 0 59439 24300.00000 0 17129262.700 -18903947.368 476609.411 10 0 59439 25200.00000 0 16787733.936 -18850669.267 3711853.068 10 0 59439 26100.00000 0 16221763.352 -18452401.523 6875032.348 10 0 59439 27000.00000 0 15486543.657 -17689265.591 9904724.060 10 0 59439 27900.00000 0 14641586.771 -16554447.892 12742086.166 10 0 59439 28800.00000 0 13748073.336 -15054698.327 15332001.309 10 0 59439 29700.00000 0 12866147.514 -13210271.268 17624148.189 10 0 59439 30600.00000 0 12052271.350 -11054310.223 19573979.941 10 0 59439 31500.00000 0 11356750.370 -8631700.814 21143590.438 10 0 59439 32400.00000 0 10821534.794 -5997438.733 22302451.880 10 0 59439 33300.00000 0 10478389.080 -3214579.670 23028009.465 10 0 59439 34200.00000 0 10347506.990 -351855.634 23306121.720 10 0 59439 35100.00000 0 10436630.632 2518944.086 23131338.009 10 0 59439 36000.00000 0 10740710.797 5325719.283 22507007.803 10 0 59439 36900.00000 0 11242123.176 7998818.959 21445219.352 10 0 59439 37800.00000 0 11911431.727 10473701.143 19966568.676 10 0 59439 38700.00000 0 12708667.398 12693382.322 18099762.868 10 0 59439 39600.00000 0 13585068.695 14610574.893 15881064.966 10 0 59439 40500.00000 0 14485210.925 16189424.036 13353590.722 10 0 59439 41400.00000 0 15349434.395 17406772.024 10566470.510 10 0 59439 42300.00000 0 16116468.962 18252897.569 7573892.592 10 0 59439 43200.00000 0 16726143.750 18731700.003 4434046.315 10 0 59439 44100.00000 0 17122067.048 18860321.377 1207986.089 10 0 59439 45000.00000 0 17254162.452 18668223.350 -2041561.185 10 0 59439 45900.00000 0 17080953.335 18195758.852 -5251421.388 10 0 59439 46800.00000 0 16571498.339 17492299.908 -8359206.587 10 0 59439 47700.00000 0 15706895.453 16614001.743 -11304531.776 10 0 59439 48600.00000 0 14481290.593 15621298.579 -14030190.708 10 0 59439 49500.00000 0 12902347.602 14576237.696 -16483267.621 10 0 59439 50400.00000 0 10991159.486 13539764.783 -18616163.053 10 0 59439 51300.00000 0 8781604.179 12569075.379 -20387514.066 10 0 59439 52200.00000 0 6319171.353 11715143.912 -21762991.505 10 0 59439 53100.00000 0 3659308.943 11020534.045 -22715959.447 10 0 59439 54000.00000 0 865357.760 10517581.834 -23227984.922 10 0 59439 54900.00000 0 -1993840.503 10227027.337 -23289188.848 10 0 59439 55800.00000 0 -4846563.155 10157151.366 -22898432.115 10 0 59439 56700.00000 0 -7620946.437 10303452.918 -22063333.777 10 0 59439 57600.00000 0 -10247732.850 10648880.248 -20800121.337 10 0 59439 58500.00000 0 -12662912.875 11164605.494 -19133316.043 10 0 59439 59400.00000 0 -14810152.548 11811310.183 -17095259.103 10 0 59439 60300.00000 0 -16642907.159 12540927.617 -14725487.550 10 0 59439 61200.00000 0 -18126134.033 13298769.058 -12069971.314 10 0 59439 62100.00000 0 -19237534.019 14025944.493 -9180225.695 10 0 59439 63000.00000 0 -19968270.663 14661976.250 -6112315.840 10 0 59439 63900.00000 0 -20323137.659 15147495.453 -2925772.175 10 0 59439 64800.00000 0 -20320168.188 15426907.577 317562.478 10 0 59439 65700.00000 0 -19989703.068 15450914.415 3554731.855 10 0 59439 66600.00000 0 -19372957.275 15178785.593 6722887.835 10 0 59439 67500.00000 0 -18520145.555 14580283.135 9760510.798 10 0 59439 68400.00000 0 -17488246.343 13637157.030 12608604.850 10 0 59439 69300.00000 0 -16338498.411 12344147.753 15211844.358 10 0 59439 70200.00000 0 -15133735.921 10709452.340 17519649.396 10 0 59439 71100.00000 0 -13935674.183 8754633.093 19487169.172 10 0 59439 72000.00000 0 -12802260.474 6513971.422 21076154.250 10 0 59439 72900.00000 0 -11785201.382 4033292.457 22255700.789 10 0 59439 73800.00000 0 -10927770.554 1368308.158 23002852.517 10 0 59439 74700.00000 0 -10262988.980 -1417453.147 23303048.798 10 0 59439 75600.00000 0 -9812254.151 -4255045.744 23150410.253 10 0 59439 76500.00000 0 -9584475.627 -7072735.246 22547856.289 10 0 59439 77400.00000 0 -9575753.299 -9798748.458 21507052.088 10 0 59439 78300.00000 0 -9769611.859 -12364030.771 20048185.779 10 0 59439 79200.00000 0 -10137781.612 -14704896.957 18199579.649 10 0 59439 80100.00000 0 -10641492.742 -16765465.327 15997142.533 10 0 59439 81000.00000 0 -11233228.470 -18499774.196 13483673.506 10 0 59439 81900.00000 0 -11858862.967 -19873492.652 10708030.061 10 0 59439 82800.00000 0 -12460093.525 -20865154.402 7724176.761 10 0 59439 83700.00000 0 -12977063.772 -21466863.486 4590132.917 10 0 59439 84600.00000 0 -13351066.440 -21684442.862 1366839.945 10 0 59439 85500.00000 0 -13527210.662 -21537020.296 -1883028.942 10 0 59440 0.00000 0 -13456940.202 -21056069.915 -5096292.902 10 0 59440 900.00000 0 -13100294.872 -20283950.666 -8210497.295 10 0 59440 1800.00000 0 -12427819.983 -19272004.567 -11165131.438 10 0 59440 2700.00000 0 -11422040.275 -18078295.617 -13902807.232 10 0 59440 3600.00000 0 -10078437.775 -16765085.795 -16370374.514 10 0 59440 4500.00000 0 -8405890.272 -15396155.064 -18519951.551 10 0 59440 5400.00000 0 -6426552.109 -14034078.646 -20309850.854 10 0 59440 6300.00000 0 -4175181.557 -12737576.123 -21705382.814 10 0 59440 7200.00000 0 -1697942.457 -11559043.544 -22679522.185 10 0 59440 8100.00000 0 949270.486 -10542371.557 -23213425.351 10 0 59440 9000.00000 0 3702913.685 -9721140.283 -23296789.178 10 0 59440 9900.00000 0 6494198.050 -9117265.692 -22928045.243 10 0 59440 10800.00000 0 9251714.825 -8740153.178 -22114386.260 10 0 59440 11700.00000 0 11904175.885 -8586392.873 -20871624.511 10 0 59440 12600.00000 0 14383155.627 -8640008.694 -19223885.089 10 0 59440 13500.00000 0 16625721.698 -8873250.009 -17203139.697 10 0 59440 14400.00000 0 18576846.215 -9247892.296 -14848589.605 10 0 59440 15300.00000 0 20191497.985 -9716991.927 -12205909.196 10 0 59440 16200.00000 0 21436329.399 -10227021.144 -9326364.192 10 0 59440 17100.00000 0 22290888.291 -10720293.326 -6265821.017 10 0 59440 18000.00000 0 22748304.596 -11137576.313 -3083666.172 10 0 59440 18900.00000 0 22815423.563 -11420783.431 158343.732 10 0 59440 19800.00000 0 22512380.273 -11515628.410 3397279.153 10 0 59440 20700.00000 0 21871633.615 -11374131.700 6570258.567 10 0 59440 21600.00000 0 20936500.555 -10956871.755 9615669.409 10 0 59440 22500.00000 0 19759252.516 -10234885.446 12474365.057 10 0 59440 23400.00000 0 18398854.115 -9191136.486 15090814.292 10 0 59440 24300.00000 0 16918439.452 -7821488.810 17414180.782 10 0 59440 25200.00000 0 15382632.121 -6135142.621 19399311.515 10 0 59440 26100.00000 0 13854821.596 -4154513.435 21007614.954 10 0 59440 27000.00000 0 12394510.291 -1914557.652 22207811.966 10 0 59440 27900.00000 0 11054842.508 538428.584 22976545.091 10 0 59440 28800.00000 0 9880418.772 3148488.471 23298834.415 10 0 59440 29700.00000 0 8905486.950 5852092.868 23168371.301 10 0 59440 30600.00000 0 8152585.717 8580552.070 22587644.231 10 0 59440 31500.00000 0 7631696.999 11262651.533 21567894.134 10 0 59440 32400.00000 0 7339942.623 13827402.710 20128899.768 10 0 59440 33300.00000 0 7261837.593 16206795.087 18298596.912 10 0 59440 34200.00000 0 7370089.050 18338435.131 16112538.265 10 0 59440 35100.00000 0 7626906.880 20167962.443 13613204.126 10 0 59440 36000.00000 0 7985770.361 21651142.428 10849176.826 10 0 59440 36900.00000 0 8393575.770 22755548.086 7874194.811 10 0 59440 37800.00000 0 8793073.661 23461760.715 4746104.800 10 0 59440 38700.00000 0 9125492.029 23764039.485 1525732.578 10 0 59440 39600.00000 0 9333233.583 23670432.134 -1724305.024 10 0 59440 40500.00000 0 9362532.111 23202322.787 -4940823.220 10 0 59440 41400.00000 0 9165954.586 22393436.651 -8061302.963 10 0 59440 42300.00000 0 8704642.316 21288344.350 -11025110.373 10 0 59440 43200.00000 0 7950195.567 19940529.786 -13774677.658 10 0 59440 44100.00000 0 6886121.319 18410103.687 -16256622.142 10 0 59440 45000.00000 0 5508782.495 16761259.772 -18422781.457 10 0 59440 45900.00000 0 3827808.097 15059580.927 -20231144.976 10 0 59440 46800.00000 0 1865946.427 13369308.673 -21646663.848 10 0 59440 47700.00000 0 -341632.999 11750690.370 -22641924.541 10 0 59440 48600.00000 0 -2748560.298 10257514.815 -23197673.652 10 0 59440 49500.00000 0 -5298958.632 8934938.596 -23303184.661 10 0 59440 50400.00000 0 -7929540.355 7817693.217 -22956460.265 10 0 59440 51300.00000 0 -10572019.603 6928746.773 -22164266.958 10 0 59440 52200.00000 0 -13155742.022 6278474.981 -20942001.579 10 0 59440 53100.00000 0 -15610423.244 5864375.133 -19313392.460 10 0 59440 54000.00000 0 -17868883.350 5671333.925 -17310040.809 10 0 59440 54900.00000 0 -19869664.497 5672437.108 -14970810.786 10 0 59440 55800.00000 0 -21559423.550 5830286.370 -12341079.584 10 0 59440 56700.00000 0 -22895000.685 6098767.659 -9471861.446 10 0 59440 57600.00000 0 -23845078.219 6425196.220 -6418821.973 10 0 59440 58500.00000 0 -24391360.635 6752747.757 -3241201.487 10 0 59440 59400.00000 0 -24529226.746 7023072.965 -667.976 10 0 59440 60300.00000 0 -24267826.798 7178984.746 3239878.275 10 0 59440 61200.00000 0 -23629620.520 7167104.286 6417525.018 10 0 59440 62100.00000 0 -22649375.571 6940353.626 9470569.518 10 0 59440 63000.00000 0 -21372668.480 6460188.769 12339717.285 10 0 59440 63900.00000 0 -19853951.049 5698478.180 14969234.387 10 0 59440 64800.00000 0 -18154263.435 4638946.381 17308030.873 10 0 59440 65700.00000 0 -16338689.862 3278120.619 19310654.154 10 0 59440 66600.00000 0 -14473663.664 1625739.451 20938172.979 10 0 59440 67500.00000 0 -12624234.496 -295395.372 22158934.982 10 0 59440 68400.00000 0 -10851411.993 -2450119.032 22949183.192 10 0 59440 69300.00000 0 -9209696.862 -4792127.969 23293519.672 10 0 59440 70200.00000 0 -7744902.389 -7265678.673 23185207.358 10 0 59440 71100.00000 0 -6492357.079 -9807691.432 22626304.208 10 0 59440 72000.00000 0 -5475563.281 -12350172.371 21627626.879 10 0 59440 72900.00000 0 -4705367.407 -14822853.794 20208544.352 10 0 59440 73800.00000 0 -4179676.008 -17155943.515 18396605.073 10 0 59440 74700.00000 0 -3883729.059 -19282868.904 16227004.414 10 0 59440 75600.00000 0 -3790918.335 -21142901.455 13741902.335 10 0 59440 76500.00000 0 -3864115.775 -22683552.318 10989604.107 10 0 59440 77400.00000 0 -4057455.143 -23862638.540 8023619.874 10 0 59440 78300.00000 0 -4318490.962 -24649933.456 4901621.323 10 0 59440 79200.00000 0 -4590642.642 -25028332.033 1684315.953 10 0 59440 80100.00000 0 -4815819.497 -24994482.313 -1565738.597 10 0 59440 81000.00000 0 -4937114.569 -24558856.710 -4785356.496 10 0 59440 81900.00000 0 -4901452.252 -23745260.604 -7911957.480 10 0 59440 82800.00000 0 -4662076.722 -22589799.481 -10884787.565 10 0 59440 83700.00000 0 -4180775.043 -21139348.792 -13646102.412 10 0 59440 84600.00000 0 -3429740.220 -19449591.586 -16142289.937 10 0 59440 85500.00000 0 -2392994.907 -17582707.036 -18324910.076 99